| time (UTC) | temp C | wind direction | speed KPH | gust KPH | rain 1hr cm | rain 24hr cm | rain mn cm | humidity % | barometer mb |
| 20260504000047 | 8 | 338 | 0.0 | 0.0 | 0.00 | 0.66 | 0.00 | 99 | 1012.6 |
| 20260503235037 | 8 | 338 | 0.0 | 0.0 | 0.00 | 0.66 | 0.00 | 99 | 1012.6 |
| 20260503234030 | 8 | 338 | 0.0 | 0.0 | 0.00 | 0.66 | 0.00 | 99 | 1012.7 |
| 20260503233025 | 9 | 338 | 0.0 | 0.0 | 0.00 | 0.66 | 0.00 | 99 | 1012.8 |
| 20260503232016 | 9 | 338 | 0.0 | 0.0 | 0.00 | 0.66 | 0.00 | 99 | 1012.6 |
| 20260503231009 | 9 | 338 | 0.0 | 0.0 | 0.00 | 0.66 | 0.00 | 99 | 1012.7 |
| 20260503230006 | 9 | 338 | 0.0 | 0.0 | 0.00 | 0.66 | 0.00 | 99 | 1012.5 |
| 20260503224956 | 10 | 338 | 0.0 | 0.0 | 0.00 | 0.66 | 0.00 | 99 | 1012.6 |
| 20260503223949 | 10 | 338 | 0.0 | 0.0 | 0.00 | 0.66 | 0.00 | 99 | 1012.7 |
| 20260503222945 | 10 | 338 | 0.0 | 0.0 | 0.00 | 0.66 | 0.00 | 99 | 1012.7 |
| 20260503221936 | 10 | 338 | 0.0 | 0.0 | 0.00 | 0.66 | 0.00 | 99 | 1012.8 |
| 20260503220929 | 10 | 338 | 0.0 | 0.0 | 0.00 | 0.66 | 0.00 | 99 | 1012.9 |
| 20260503215926 | 10 | 338 | 0.0 | 0.0 | 0.00 | 0.66 | 0.66 | 99 | 1013.0 |
| 20260503214916 | 10 | 338 | 0.0 | 0.0 | 0.00 | 0.66 | 0.66 | 99 | 1013.1 |
| 20260503213908 | 10 | 338 | 0.0 | 0.0 | 0.00 | 0.66 | 0.66 | 99 | 1013.0 |
| 20260503212901 | 10 | 338 | 0.0 | 0.0 | 0.00 | 0.66 | 0.66 | 99 | 1012.9 |
| 20260503211854 | 10 | 338 | 0.0 | 0.0 | 0.00 | 0.66 | 0.66 | 99 | 1012.9 |
| 20260503205841 | 10 | 338 | 0.0 | 0.0 | 0.00 | 0.66 | 0.66 | 99 | 1012.8 |
| 20260503204834 | 10 | 338 | 0.0 | 0.0 | 0.00 | 0.66 | 0.66 | 99 | 1012.7 |
| 20260503203828 | 10 | 338 | 0.0 | 0.0 | 0.00 | 0.66 | 0.66 | 99 | 1012.6 |
| 20260503202820 | 10 | 338 | 0.0 | 0.0 | 0.05 | 0.66 | 0.66 | 99 | 1012.7 |
| 20260503201813 | 10 | 338 | 0.0 | 0.0 | 0.05 | 0.66 | 0.66 | 99 | 1012.3 |
| 20260503200806 | 10 | 338 | 0.0 | 0.0 | 0.05 | 0.66 | 0.66 | 99 | 1012.2 |
| 20260503195758 | 10 | 338 | 0.0 | 0.0 | 0.05 | 0.66 | 0.66 | 99 | 1011.9 |
| 20260503194752 | 10 | 338 | 0.0 | 0.0 | 0.05 | 0.66 | 0.66 | 99 | 1012.0 |
| 20260503193746 | 10 | 338 | 0.0 | 0.0 | 0.05 | 0.66 | 0.66 | 99 | 1011.8 |
| 20260503192845 | 10 | 338 | 0.0 | 0.0 | 0.00 | 0.61 | 0.61 | 98 | 1012.0 |
| 20260503191836 | 10 | 338 | 0.0 | 0.0 | 0.00 | 0.61 | 0.61 | 99 | 1011.9 |
| 20260503190830 | 10 | 338 | 0.0 | 0.0 | 0.00 | 0.61 | 0.61 | 99 | 1011.8 |
| 20260503185826 | 10 | 338 | 0.0 | 0.0 | 0.00 | 0.61 | 0.61 | 95 | 1011.5 |
| 20260503184815 | 11 | 338 | 0.0 | 0.0 | 0.00 | 0.61 | 0.61 | 91 | 1011.2 |
| 20260503183809 | 11 | 338 | 0.0 | 0.0 | 0.00 | 0.61 | 0.61 | 94 | 1011.0 |
| 20260503182806 | 11 | 338 | 0.0 | 0.0 | 0.00 | 0.61 | 0.61 | 90 | 1011.2 |
| 20260503181755 | 12 | 338 | 0.0 | 0.0 | 0.00 | 0.66 | 0.61 | 91 | 1011.1 |
| 20260503180748 | 12 | 338 | 0.0 | 0.0 | 0.00 | 0.66 | 0.61 | 86 | 1011.1 |
| 20260503175741 | 12 | 338 | 0.0 | 0.0 | 0.00 | 0.66 | 0.61 | 87 | 1011.0 |
| 20260503174736 | 12 | 338 | 0.0 | 0.0 | 0.00 | 0.66 | 0.61 | 85 | 1010.9 |
| 20260503173728 | 12 | 338 | 0.0 | 0.0 | 0.00 | 0.66 | 0.61 | 86 | 1010.8 |
| 20260503172721 | 12 | 338 | 0.0 | 0.0 | 0.00 | 0.66 | 0.61 | 83 | 1010.8 |
| 20260503171714 | 12 | 338 | 0.0 | 0.0 | 0.00 | 0.66 | 0.61 | 83 | 1010.6 |
| 20260503170707 | 12 | 338 | 0.0 | 0.0 | 0.00 | 0.66 | 0.61 | 88 | 1010.7 |
| 20260503150725 | 12 | 158 | 0.0 | 0.0 | 0.05 | 0.84 | 0.41 | 99 | 1011.6 |
| 20260503090129 | 12 | 203 | 0.0 | 0.0 | 0.00 | 1.70 | 0.00 | 94 | 1013.6 |
| 20260503081056 | 12 | 225 | 0.0 | 0.0 | 0.00 | 1.70 | 0.00 | 99 | 1013.4 |
| 20260503072024 | 11 | 225 | 0.0 | 0.0 | 0.00 | 1.70 | 0.00 | 99 | 1013.7 |
| 20260503054918 | 10 | 270 | 0.0 | 0.0 | 0.00 | 1.70 | 0.00 | 99 | 1013.9 |
| 20260503053911 | 10 | 270 | 0.0 | 0.0 | 0.00 | 1.70 | 0.00 | 99 | 1013.8 |
| 20260503052904 | 10 | 270 | 0.0 | 0.0 | 0.00 | 1.70 | 0.00 | 99 | 1013.8 |
| 20260503051858 | 10 | 270 | 0.0 | 0.0 | 0.00 | 1.70 | 0.00 | 99 | 1013.7 |
| 20260503050850 | 10 | 270 | 0.0 | 0.0 | 0.00 | 1.70 | 0.00 | 99 | 1013.7 |
| 20260503045844 | 10 | 270 | 0.0 | 0.0 | 0.00 | 1.70 | 0.00 | 99 | 1013.7 |
| 20260503044836 | 10 | 270 | 0.0 | 0.0 | 0.00 | 1.70 | 0.00 | 99 | 1013.7 |
| 20260503043829 | 10 | 270 | 0.0 | 0.0 | 0.00 | 1.70 | 0.00 | 99 | 1013.8 |
| 20260503042824 | 10 | 270 | 0.0 | 0.0 | 0.00 | 1.70 | 0.00 | 99 | 1013.9 |
| 20260503040808 | 10 | 270 | 0.0 | 0.0 | 0.00 | 1.70 | 0.00 | 99 | 1013.9 |
| 20260503035804 | 10 | 270 | 0.0 | 0.0 | 0.00 | 1.70 | 0.00 | 99 | 1014.0 |
| 20260503034754 | 10 | 270 | 0.0 | 0.0 | 0.00 | 1.70 | 0.00 | 99 | 1014.0 |
| 20260503033747 | 10 | 270 | 0.0 | 0.0 | 0.00 | 1.70 | 0.00 | 99 | 1014.2 |
| 20260503032744 | 10 | 270 | 0.0 | 0.0 | 0.00 | 1.70 | 0.00 | 99 | 1014.2 |
| 20260503031733 | 9 | 270 | 0.0 | 0.0 | 0.00 | 1.70 | 0.00 | 99 | 1014.3 |
| 20260503030726 | 10 | 270 | 0.0 | 0.0 | 0.00 | 1.70 | 0.00 | 99 | 1014.2 |
| 20260503025719 | 10 | 270 | 0.0 | 0.0 | 0.00 | 1.70 | 0.00 | 99 | 1014.2 |
| 20260503024713 | 10 | 270 | 0.0 | 0.0 | 0.00 | 1.70 | 0.00 | 99 | 1014.2 |
| 20260503023705 | 9 | 270 | 0.0 | 0.0 | 0.00 | 1.70 | 0.00 | 99 | 1014.3 |
| 20260503022658 | 9 | 270 | 0.0 | 0.0 | 0.00 | 1.70 | 0.00 | 99 | 1014.4 |
| 20260503021651 | 10 | 270 | 0.0 | 0.0 | 0.00 | 1.70 | 0.00 | 99 | 1014.5 |
| 20260503015637 | 9 | 270 | 0.0 | 0.0 | 0.00 | 1.70 | 0.00 | 99 | 1014.5 |
| 20260503014630 | 9 | 270 | 0.0 | 0.0 | 0.00 | 1.70 | 0.00 | 99 | 1014.5 |
| 20260503013624 | 9 | 270 | 0.0 | 0.0 | 0.00 | 1.70 | 0.00 | 99 | 1014.7 |
| 20260503012617 | 9 | 270 | 0.0 | 0.0 | 0.00 | 1.70 | 0.00 | 99 | 1014.7 |
| 20260503011609 | 9 | 270 | 0.0 | 0.0 | 0.00 | 1.70 | 0.00 | 99 | 1014.9 |
| 20260503010604 | 9 | 270 | 0.0 | 0.0 | 0.00 | 1.70 | 0.00 | 99 | 1015.0 |
| 20260503004548 | 9 | 270 | 0.0 | 0.0 | 0.00 | 1.70 | 0.00 | 99 | 1015.2 |
| 20260503003544 | 9 | 270 | 0.0 | 0.0 | 0.00 | 1.70 | 0.00 | 99 | 1015.2 |
| 20260503002534 | 9 | 270 | 0.0 | 0.0 | 0.00 | 1.70 | 0.00 | 99 | 1015.4 |
| 20260503001527 | 9 | 270 | 0.0 | 0.0 | 0.00 | 1.70 | 0.00 | 99 | 1015.6 |